Location: ??
(34.9170°N, 135.5016°E)
Time: 11:30:13
(UTC+00:00)

Explorer 7 - Pass Details

Date: 05 March 2021
Orbit: 484 x 677 km, 50.3° (Epoch: 18 April)

Event Time Altitude Azimuth Distance (km) Brightness Sun altitude
Rises 03:25:22 0° 224° (SW) 2,992 11.0 48.9°
Reaches altitude 10° 03:27:45 10° 223° (SW) 2,066 10.4 48.9°
Maximum altitude 03:32:31 78° 138° (SE) 657 8.3 48.7°
Drops below altitude 10° 03:37:05 10° 52° (NE) 1,974 9.5 48.6°
Sets 03:39:19 0° 51° (NE) 2,848 10.2 48.5°
